Charlottesville, VA

11:01 AM EDT on March 24, 2017 (GMT -0400)
Charlottesville-Albemarle

Weather History for KCHO - May, 2013

Change the Weather History Date:

Monday, May 20, 2013

  Actual Average Record
Temperature  
Mean Temperature 73 °F 64 °F  
Max Temperature 81 °F 76 °F 95 °F (1934)
Min Temperature 64 °F 53 °F 31 °F (2002)
Degree Days  
Heating Degree Days 0 3  
Month to date heating degree days 111 97  
Since 1 July heating degree days 4170 4409  
Cooling Degree Days 8 2  
Month to date cooling degree days 38 31  
Year to date cooling degree days 82 52  
Growing Degree Days 22 (Base 50)    
Moisture  
Dew Point 65 °F    
Average Humidity 79    
Maximum Humidity 100    
Minimum Humidity 58    
Precipitation  
Precipitation 0.00 in 0.13 in 0.64 in (2005)
Month to date precipitation 3.05 2.37  
Year to date precipitation 15.33 14.86  
Sea Level Pressure  
Sea Level Pressure 30.06 in    
Wind  
Wind Speed 4 mph (South)    
Max Wind Speed 10 mph    
Max Gust Speed 22 mph    
Visibility 7 miles    
Events Fog    
T = Trace of Precipitation, MM = Missing Value Source: NWS Daily Summary

Daily Weather History Graph

Daily Weather History Graph

Search for Another Location

Airport or City:

Trip Planner

Search our weather history database for the weather conditions in past years. The results will help you decide how hot, cold, wet, or windy it might be!

Date:

Astronomy

May. 20, 2013 Rise Set
Actual Time 5:58 AM EDT 8:22 PM EDT
Civil Twilight 5:28 AM EDT 8:52 PM EDT
Nautical Twilight 4:51 AM EDT 9:29 PM EDT
Astronomical Twilight 4:11 AM EDT 10:10 PM EDT
Moon 3:31 PM EDT (5/20) 2:48 AM EDT (5/20)
Length of Visible Light 15h 23m
Length of Day
14h 23m
Waxing Gibbous, 75% of the Moon is Illuminated
May 20
Waxing Gibbous
May 25
Full
May 31
Last Quarter
Jun 8
New
Jun 16
First Quarter

Hourly Weather History & Observations

Time (EDT) Temp. Heat Index Dew Point Humidity Pressure Visibility Wind Dir Wind Speed Gust Speed Precip Events Conditions
12:40 AM 64.4 °F - 64.4 °F 100% 30.11 in 5.0 mi SSE 3.5 mph - 0.00 in   Overcast
12:53 AM 64.9 °F - 64.0 °F 97% 30.10 in 6.0 mi SSE 3.5 mph - 0.00 in   Overcast
1:00 AM 64.4 °F - 64.4 °F 100% 30.11 in 5.0 mi Calm Calm - N/A   Overcast
1:53 AM 64.9 °F - 63.0 °F 93% 30.09 in 10.0 mi Calm Calm - N/A   Overcast
2:28 AM 64.4 °F - 62.6 °F 94% 30.08 in 10.0 mi South 3.5 mph - N/A   Overcast
2:53 AM 64.9 °F - 63.0 °F 93% 30.07 in 10.0 mi Calm Calm - N/A   Overcast
3:41 AM 64.4 °F - 62.6 °F 94% 30.07 in 6.0 mi Calm Calm - N/A   Overcast
4:05 AM 64.4 °F - 62.6 °F 94% 30.07 in 2.5 mi Calm Calm - N/A   Overcast
4:23 AM 64.4 °F - 62.6 °F 94% 30.07 in 1.5 mi South 3.5 mph - N/A   Overcast
4:43 AM 64.4 °F - 62.6 °F 94% 30.07 in 0.8 mi South 5.8 mph - N/A   Mist
4:53 AM 64.0 °F - 63.0 °F 96% 30.05 in 0.8 mi South 4.6 mph - N/A   Mist
5:53 AM 64.0 °F - 63.0 °F 96% 30.06 in 0.2 mi South 3.5 mph - 0.01 in Fog Fog
7:53 AM 64.9 °F - 64.0 °F 97% 30.09 in 0.2 mi Calm Calm - N/A Fog Fog
8:32 AM 64.4 °F - 64.4 °F 100% 30.10 in 2.0 mi SSW 3.5 mph - N/A   Overcast
8:50 AM 66.2 °F - 64.4 °F 94% 30.10 in 4.0 mi SSW 3.5 mph - N/A   Overcast
8:53 AM 66.0 °F - 64.9 °F 96% 30.09 in 3.0 mi SSW 4.6 mph - N/A   Overcast
9:53 AM 66.9 °F - 64.9 °F 93% 30.10 in 8.0 mi Variable 5.8 mph - N/A   Overcast
10:23 AM 68.0 °F - 66.2 °F 94% 30.10 in 10.0 mi South 3.5 mph - N/A   Overcast
10:43 AM 69.8 °F - 66.2 °F 88% 30.10 in 10.0 mi SSW 8.1 mph - N/A   Overcast
10:53 AM 70.0 °F - 66.0 °F 87% 30.09 in 10.0 mi SW 5.8 mph - N/A   Overcast
10:59 AM 69.8 °F - 66.2 °F 88% 30.10 in 10.0 mi SSW 6.9 mph - N/A   Overcast
11:53 AM 73.0 °F - 66.9 °F 81% 30.07 in 10.0 mi South 6.9 mph - N/A   Overcast
12:00 PM 73.4 °F - 66.2 °F 78% 30.09 in 10.0 mi South 8.1 mph - N/A   Overcast
12:32 PM 73.4 °F - 66.2 °F 78% 30.08 in 10.0 mi South 6.9 mph - N/A   Mostly Cloudy
12:53 PM 73.9 °F - 66.0 °F 76% 30.06 in 10.0 mi SSW 8.1 mph - N/A   Mostly Cloudy
1:24 PM 73.4 °F - 66.2 °F 78% 30.07 in 10.0 mi SSE 5.8 mph - N/A   Overcast
1:53 PM 75.9 °F - 66.9 °F 74% 30.04 in 10.0 mi SSE 6.9 mph - N/A   Overcast
2:53 PM 77.0 °F - 66.0 °F 69% 30.02 in 10.0 mi SE 6.9 mph - N/A   Partly Cloudy
3:53 PM 78.1 °F - 66.0 °F 66% 30.01 in 10.0 mi SSE 6.9 mph - N/A   Scattered Clouds
4:53 PM 80.1 °F 81.9 °F 64.9 °F 60% 29.98 in 10.0 mi SSE 5.8 mph - N/A   Clear
5:53 PM 81.0 °F 82.7 °F 64.9 °F 58% 29.99 in 10.0 mi South 10.4 mph - N/A   Partly Cloudy
6:53 PM 75.9 °F - 66.9 °F 74% 30.00 in 10.0 mi South 5.8 mph - N/A   Scattered Clouds
7:53 PM 73.9 °F - 66.9 °F 79% 30.00 in 10.0 mi South 9.2 mph - N/A   Clear
8:53 PM 72.0 °F - 66.0 °F 81% 29.98 in 10.0 mi SSW 6.9 mph - N/A   Clear
9:53 PM 71.1 °F - 66.0 °F 84% 30.01 in 10.0 mi Calm Calm - N/A   Clear
10:53 PM 71.1 °F - 64.9 °F 81% 30.00 in 10.0 mi Variable 3.5 mph - N/A   Mostly Cloudy
11:53 PM 69.1 °F - 63.0 °F 81% 29.99 in 10.0 mi Calm Calm - N/A   Clear